#�ϑ�����,���ϕ���,���ϕ���,�ő啗��,�ő啗����������,�ő�u�ԕ���,�ő�u�ԕ�����������
#(�N����),(m/s)   ,(16����),(m/s)   ,(16����)        ,(m/s)       ,(16����)            
2014/3/30 0:01,1.9,2,2,2,2.2,3
2014/3/30 0:02,1.7,2,1.9,2,1.8,4
2014/3/30 0:03,1.6,2,1.7,2,2.1,4
2014/3/30 0:04,1.6,2,1.6,2,2.7,3
2014/3/30 0:05,1.6,2,1.6,2,3.5,3
2014/3/30 0:06,1.7,2,1.7,2,3.3,3
2014/3/30 0:07,1.7,3,1.7,2,2.7,3
2014/3/30 0:08,1.8,3,1.8,2,4.3,4
2014/3/30 0:09,2,3,2,2,3.6,3
2014/3/30 0:10,2,3,2,2,3.1,3
2014/3/30 0:11,2.2,3,2.2,3,4.3,2
2014/3/30 0:12,2.3,3,2.3,3,3.7,3
2014/3/30 0:13,2.5,3,2.5,3,4.1,4
2014/3/30 0:14,2.5,3,2.5,3,3.7,4
2014/3/30 0:15,2.6,3,2.6,3,4.7,3
2014/3/30 0:16,2.6,3,2.6,3,4.2,3
2014/3/30 0:17,2.8,3,2.8,3,5,3
2014/3/30 0:18,2.8,3,2.9,3,4.9,3
2014/3/30 0:19,2.9,3,2.9,3,5,4
2014/3/30 0:20,3,3,3,3,6.5,4
2014/3/30 0:21,3.1,3,3.1,3,5.4,4
2014/3/30 0:22,3.1,4,3.1,3,4.9,4
2014/3/30 0:23,3.1,4,3.1,3,4.3,3
2014/3/30 0:24,3.3,3,3.3,3,5.8,3
2014/3/30 0:25,3.5,3,3.5,3,6.3,3
2014/3/30 0:26,3.5,3,3.5,3,4.9,4
2014/3/30 0:27,3.6,3,3.6,3,5.7,3
2014/3/30 0:28,3.7,3,3.7,3,5.6,3
2014/3/30 0:29,3.8,3,3.8,3,6.1,4
2014/3/30 0:30,3.8,4,3.9,4,5.2,3
2014/3/30 0:31,3.8,3,3.9,4,6.2,4
2014/3/30 0:32,3.8,3,3.8,4,4.2,5
2014/3/30 0:33,4,3,4,3,6.5,3
2014/3/30 0:34,3.9,3,4,3,5.7,5
2014/3/30 0:35,3.9,3,3.9,3,6.7,4
2014/3/30 0:36,3.9,4,3.9,3,6.2,5
2014/3/30 0:37,3.7,4,3.9,3,3.6,3
2014/3/30 0:38,3.6,4,3.7,3,5.1,4
2014/3/30 0:39,3.5,4,3.6,3,5.6,3
2014/3/30 0:40,3.5,4,3.5,3,5.4,4
2014/3/30 0:41,3.5,4,3.5,3,5.2,3
2014/3/30 0:42,3.6,3,3.6,3,6.2,4
2014/3/30 0:43,3.4,4,3.6,3,4.5,3
2014/3/30 0:44,3.4,4,3.4,3,4.3,3
2014/3/30 0:45,3.2,3,3.3,3,4.9,3
2014/3/30 0:46,3.3,4,3.3,4,5.1,4
2014/3/30 0:47,3.4,4,3.4,4,4.4,5
2014/3/30 0:48,3.2,4,3.3,4,3.5,3
2014/3/30 0:49,3.1,4,3.2,3,3,3
2014/3/30 0:50,3,4,3,3,4.4,4
2014/3/30 0:51,2.9,4,2.9,3,3.6,3
2014/3/30 0:52,2.7,4,2.9,4,3,3
2014/3/30 0:53,2.7,4,2.7,4,4.8,4
2014/3/30 0:54,2.6,4,2.7,4,3.9,4
2014/3/30 0:55,2.6,4,2.7,4,4.5,3
2014/3/30 0:56,2.6,4,2.6,4,4.3,3
2014/3/30 0:57,2.6,3,2.6,4,3.7,3
2014/3/30 0:58,2.7,3,2.7,3,4.3,3
2014/3/30 0:59,2.7,3,2.7,4,2.6,3
2014/3/30 1:00,2.6,3,2.7,4,3.5,3
2014/3/30 1:01,2.6,3,2.6,4,3.3,3
2014/3/30 1:02,2.6,3,2.6,4,4.5,3
2014/3/30 1:03,2.6,3,2.6,4,4.5,3
2014/3/30 1:04,2.6,3,2.6,4,3.7,3
2014/3/30 1:05,2.7,3,2.7,3,3.8,3
2014/3/30 1:06,2.7,3,2.7,3,5.1,2
2014/3/30 1:07,2.7,3,2.7,3,4.8,2
2014/3/30 1:08,2.7,3,2.7,3,4.3,2
2014/3/30 1:09,2.9,3,2.9,3,4.3,3
2014/3/30 1:10,3,3,3,3,5.1,3
2014/3/30 1:11,3.1,3,3.1,3,4.5,3
2014/3/30 1:12,3.2,3,3.2,3,6,2
2014/3/30 1:13,3.1,3,3.2,3,4.8,2
2014/3/30 1:14,3.1,3,3.1,3,4.4,3
2014/3/30 1:15,3.1,3,3.1,3,5,3
2014/3/30 1:16,2.9,2,3.1,3,4.8,3
2014/3/30 1:17,3,2,3,3,5.2,2
2014/3/30 1:18,3.1,2,3.1,3,4.9,3
2014/3/30 1:19,3.1,2,3.1,3,5.4,2
2014/3/30 1:20,3.1,2,3.1,3,5.1,3
2014/3/30 1:21,3,2,3,3,4.7,2
2014/3/30 1:22,3,2,3,3,6.1,2
2014/3/30 1:23,3,2,3,3,3.6,2
2014/3/30 1:24,2.9,2,3,3,4.4,3
2014/3/30 1:25,2.9,2,2.9,3,5.4,2
2014/3/30 1:26,2.9,2,2.9,2,3.8,3
2014/3/30 1:27,2.8,2,2.9,2,5.1,3
2014/3/30 1:28,2.9,2,2.9,2,4.8,3
2014/3/30 1:29,2.8,2,2.9,2,5.4,3
2014/3/30 1:30,2.8,2,2.8,2,4.4,3
2014/3/30 1:31,2.9,2,2.9,2,5,3
2014/3/30 1:32,3,2,3,2,6.1,3
2014/3/30 1:33,3,2,3,2,5,2
2014/3/30 1:34,3.1,2,3.1,2,5.8,2
2014/3/30 1:35,3.1,2,3.1,2,4.2,3
2014/3/30 1:36,3.1,2,3.1,2,4.9,3
2014/3/30 1:37,3.2,2,3.2,2,5.1,3
2014/3/30 1:38,3.1,2,3.2,2,4.8,3
2014/3/30 1:39,3.2,3,3.2,2,4.8,4
2014/3/30 1:40,3.3,3,3.3,3,6.4,3
2014/3/30 1:41,3.4,3,3.5,3,6,3
2014/3/30 1:42,3.2,3,3.4,3,3.7,3
2014/3/30 1:43,3.2,3,3.2,3,3.5,4
2014/3/30 1:44,3.1,3,3.2,3,4.5,3
2014/3/30 1:45,3.1,3,3.2,3,5.1,3
2014/3/30 1:46,3.3,3,3.3,3,6.7,2
2014/3/30 1:47,3.3,3,3.3,3,5.7,3
2014/3/30 1:48,3.3,3,3.3,3,5.8,3
2014/3/30 1:49,3.4,3,3.4,3,6.3,3
2014/3/30 1:50,3.4,3,3.5,3,5.4,2
2014/3/30 1:51,3.3,3,3.4,3,4.8,3
2014/3/30 1:52,3.6,3,3.6,3,7.2,2
2014/3/30 1:53,3.7,3,3.7,3,4.9,3
2014/3/30 1:54,3.8,3,3.8,3,5.6,2
2014/3/30 1:55,3.8,2,3.8,3,5.2,2
2014/3/30 1:56,3.8,3,3.9,3,6,2
2014/3/30 1:57,3.7,2,3.7,3,5.2,3
2014/3/30 1:58,3.6,2,3.7,3,5.8,3
2014/3/30 1:59,3.5,2,3.6,3,6.3,3
2014/3/30 2:00,3.5,2,3.5,3,5.4,3
2014/3/30 2:01,3.4,2,3.5,3,3.8,4
2014/3/30 2:02,3.2,2,3.3,3,5.2,3
2014/3/30 2:03,3.2,2,3.3,3,5.6,3
2014/3/30 2:04,3.1,2,3.2,3,6,3
2014/3/30 2:05,3.2,2,3.2,3,5.6,3
2014/3/30 2:06,3,2,3.1,2,5.5,3
2014/3/30 2:07,3,2,3.1,2,5.5,2
2014/3/30 2:08,3,3,3,2,4.8,4
2014/3/30 2:09,2.9,3,3,2,4.1,3
2014/3/30 2:10,2.8,3,2.9,2,3.6,3
2014/3/30 2:11,2.8,3,2.8,2,3.9,3
2014/3/30 2:12,2.8,3,2.9,2,5.1,4
2014/3/30 2:13,2.9,3,2.9,2,4.8,3
2014/3/30 2:14,3.1,3,3.1,2,6.7,3
2014/3/30 2:15,3.2,3,3.2,3,5.2,4
2014/3/30 2:16,3.2,3,3.2,3,4.7,3
2014/3/30 2:17,3.3,3,3.3,3,6.1,3
2014/3/30 2:18,3.4,3,3.4,3,6.1,2
2014/3/30 2:19,3.4,3,3.5,3,5,3
2014/3/30 2:20,3.5,3,3.5,3,4.7,4
2014/3/30 2:21,3.6,3,3.6,3,5,3
2014/3/30 2:22,3.7,3,3.7,3,6.1,3
2014/3/30 2:23,3.7,3,3.7,3,4.9,2
2014/3/30 2:24,3.5,3,3.7,3,4.4,3
2014/3/30 2:25,3.4,3,3.5,3,6.3,4
2014/3/30 2:26,3.4,3,3.4,3,4.5,3
2014/3/30 2:27,3.3,3,3.4,3,5,3
2014/3/30 2:28,3.3,3,3.3,3,4.2,3
2014/3/30 2:29,3.3,3,3.3,3,4.4,4
2014/3/30 2:30,3.3,3,3.3,3,4.8,2
2014/3/30 2:31,3.3,3,3.3,3,5.1,3
2014/3/30 2:32,3.3,3,3.4,3,4.5,3
2014/3/30 2:33,3.2,3,3.3,3,4.1,3
2014/3/30 2:34,3.3,3,3.3,3,5.4,3
2014/3/30 2:35,3.3,3,3.4,3,5.2,3
2014/3/30 2:36,3.4,3,3.5,3,6.1,3
2014/3/30 2:37,3.5,3,3.5,3,5.4,3
2014/3/30 2:38,3.5,3,3.5,3,5.1,2
2014/3/30 2:39,3.5,3,3.5,3,5.6,3
2014/3/30 2:40,3.5,3,3.5,3,3.7,3
2014/3/30 2:41,3.4,3,3.4,3,5,4
2014/3/30 2:42,3.4,3,3.4,3,5.5,3
2014/3/30 2:43,3.5,3,3.5,3,6.1,4
2014/3/30 2:44,3.5,3,3.5,3,4.8,2
2014/3/30 2:45,3.4,3,3.5,3,4.3,3
2014/3/30 2:46,3.3,3,3.4,3,4.4,4
2014/3/30 2:47,3.2,3,3.3,3,3.9,3
2014/3/30 2:48,3.1,3,3.2,3,3.6,2
2014/3/30 2:49,2.9,3,3.1,3,3.3,2
2014/3/30 2:50,2.9,3,2.9,3,3.6,3
2014/3/30 2:51,2.9,3,3,3,4.7,4
2014/3/30 2:52,2.8,3,2.9,3,4.1,2
2014/3/30 2:53,2.7,3,2.8,3,3.9,3
2014/3/30 2:54,2.7,3,2.7,3,5.6,3
2014/3/30 2:55,2.7,3,2.7,3,4.1,3
2014/3/30 2:56,2.6,3,2.7,3,3.9,3
2014/3/30 2:57,2.8,3,2.8,3,5.7,4
2014/3/30 2:58,2.9,3,2.9,3,4.3,3
2014/3/30 2:59,3,3,3,3,4.3,3
2014/3/30 3:00,3.1,3,3.1,3,4.7,4
2014/3/30 3:01,3.1,3,3.1,3,4.8,2
2014/3/30 3:02,3.2,3,3.2,3,5,3
2014/3/30 3:03,3.1,3,3.2,3,3.7,3
2014/3/30 3:04,3,3,3.1,3,3.8,3
2014/3/30 3:05,3,3,3,3,5.4,3
2014/3/30 3:06,3,3,3,3,4.5,3
2014/3/30 3:07,3,3,3,3,4.7,3
2014/3/30 3:08,2.9,3,2.9,3,4.4,2
2014/3/30 3:09,2.9,3,2.9,3,4.4,4
2014/3/30 3:10,2.7,3,2.9,3,3.7,3
2014/3/30 3:11,2.7,3,2.8,3,4.2,2
2014/3/30 3:12,2.8,3,2.8,3,5,2
2014/3/30 3:13,2.8,2,2.8,3,4.2,1
2014/3/30 3:14,2.9,2,2.9,3,4.5,3
2014/3/30 3:15,2.9,3,2.9,3,4.2,3
2014/3/30 3:16,2.9,2,2.9,3,4.2,2
2014/3/30 3:17,2.9,2,2.9,3,4.8,3
2014/3/30 3:18,2.8,2,2.9,3,4.4,1
2014/3/30 3:19,2.9,2,2.9,3,4.1,16
2014/3/30 3:20,2.9,2,2.9,2,4.5,2
2014/3/30 3:21,2.9,2,2.9,2,4.4,2
2014/3/30 3:22,2.7,2,2.8,2,3.2,2
2014/3/30 3:23,2.7,2,2.7,2,4.7,3
2014/3/30 3:24,2.7,2,2.8,2,4.5,3
2014/3/30 3:25,2.7,2,2.7,3,4.4,2
2014/3/30 3:26,2.7,2,2.7,2,4.7,1
2014/3/30 3:27,2.6,2,2.7,2,4.3,4
2014/3/30 3:28,2.7,2,2.7,2,4.2,2
2014/3/30 3:29,2.6,2,2.6,2,3.8,3
2014/3/30 3:30,2.6,2,2.6,2,3.9,3
2014/3/30 3:31,2.6,2,2.6,2,5.1,2
2014/3/30 3:32,2.6,2,2.6,2,4.2,1
2014/3/30 3:33,2.6,2,2.7,2,4.1,2
2014/3/30 3:34,2.6,2,2.7,2,5.8,1
2014/3/30 3:35,2.6,2,2.6,2,3.8,3
2014/3/30 3:36,2.6,2,2.6,2,5,3
2014/3/30 3:37,2.6,2,2.6,2,3.8,3
2014/3/30 3:38,2.5,2,2.6,2,4.3,3
2014/3/30 3:39,2.6,2,2.6,2,4.5,2
2014/3/30 3:40,2.7,2,2.7,2,4.3,2
2014/3/30 3:41,2.6,2,2.7,2,4.3,3
2014/3/30 3:42,2.7,2,2.7,2,4.7,3
2014/3/30 3:43,2.9,2,2.9,2,5.5,4
2014/3/30 3:44,2.7,2,2.9,2,3.2,2
2014/3/30 3:45,2.8,2,2.8,2,4.2,3
2014/3/30 3:46,2.7,2,2.8,2,4.7,3
2014/3/30 3:47,2.9,2,2.9,2,4.9,2
2014/3/30 3:48,2.9,2,3,2,4.3,2
2014/3/30 3:49,2.9,2,2.9,2,4.8,1
2014/3/30 3:50,2.8,2,2.9,2,4.3,2
2014/3/30 3:51,2.7,2,2.8,2,3.5,2
2014/3/30 3:52,2.7,2,2.7,2,3.6,3
2014/3/30 3:53,2.5,2,2.6,2,4.4,2
2014/3/30 3:54,2.6,2,2.6,2,4.4,1
2014/3/30 3:55,2.5,2,2.6,2,3.3,2
2014/3/30 3:56,2.4,2,2.5,2,2.6,2
2014/3/30 3:57,2.2,2,2.3,2,3.2,2
2014/3/30 3:58,2.2,2,2.2,2,3.7,2
2014/3/30 3:59,2.1,2,2.2,2,3.1,1
2014/3/30 4:00,2.1,2,2.1,2,3.5,2
2014/3/30 4:01,2,2,2.1,2,2.7,5
2014/3/30 4:02,2,2,2,2,3.7,5
2014/3/30 4:03,1.8,2,2,2,2.7,2
2014/3/30 4:04,1.8,2,1.8,2,3.6,2
2014/3/30 4:05,1.9,2,1.9,2,4.2,3
2014/3/30 4:06,2,2,2,2,3.7,3
2014/3/30 4:07,2.1,3,2.1,2,4.1,3
2014/3/30 4:08,2.2,3,2.2,2,4.9,3
2014/3/30 4:09,2.3,3,2.3,3,3.8,3
2014/3/30 4:10,2.3,3,2.3,3,4.7,1
2014/3/30 4:11,2.5,3,2.5,3,4.9,3
2014/3/30 4:12,2.6,3,2.6,3,3.7,2
2014/3/30 4:13,2.7,3,2.7,3,3.3,4
2014/3/30 4:14,2.8,3,2.8,3,3.7,4
2014/3/30 4:15,2.8,3,2.8,3,3.5,3
2014/3/30 4:16,2.6,3,2.7,3,2.7,2
2014/3/30 4:17,2.5,3,2.6,3,3.1,3
2014/3/30 4:18,2.5,3,2.5,3,3.8,2
2014/3/30 4:19,2.5,3,2.5,3,4.3,2
2014/3/30 4:20,2.5,3,2.5,3,3.6,3
2014/3/30 4:21,2.4,3,2.5,3,3.8,4
2014/3/30 4:22,2.3,3,2.4,3,3.3,2
2014/3/30 4:23,2.3,3,2.3,3,3.7,2
2014/3/30 4:24,2.4,3,2.4,3,4.3,3
2014/3/30 4:25,2.5,3,2.5,3,4.9,2
2014/3/30 4:26,2.6,3,2.6,3,4.9,3
2014/3/30 4:27,2.7,3,2.7,3,3.9,1
2014/3/30 4:28,2.9,3,2.9,3,4.4,2
2014/3/30 4:29,2.8,3,2.8,3,3.8,3
2014/3/30 4:30,2.9,3,2.9,3,4.2,3
2014/3/30 4:31,2.9,3,2.9,3,3.7,3
2014/3/30 4:32,2.9,2,2.9,3,4.2,3
2014/3/30 4:33,2.8,3,2.9,3,3.3,3
2014/3/30 4:34,2.7,3,2.8,3,2.6,3
2014/3/30 4:35,2.5,3,2.6,3,2.5,4
2014/3/30 4:36,2.5,3,2.5,3,3.9,3
2014/3/30 4:37,2.5,3,2.5,3,3.9,3
2014/3/30 4:38,2.4,3,2.5,3,3.6,3
2014/3/30 4:39,2.2,3,2.4,3,1.5,3
2014/3/30 4:40,2.1,3,2.2,3,3.3,2
2014/3/30 4:41,2.1,3,2.1,3,3.3,2
2014/3/30 4:42,2.1,3,2.1,2,3.5,2
2014/3/30 4:43,2.2,3,2.2,2,4.3,3
2014/3/30 4:44,2.3,3,2.3,3,4.4,3
2014/3/30 4:45,2.3,3,2.3,3,3.2,2
2014/3/30 4:46,2.3,3,2.3,3,4.9,3
2014/3/30 4:47,2.2,3,2.2,3,3.1,3
2014/3/30 4:48,2,2,2.1,3,3,2
2014/3/30 4:49,2.1,2,2.1,3,3.7,4
2014/3/30 4:50,2.2,2,2.2,3,2.4,5
2014/3/30 4:51,2,2,2.1,3,1.6,3
2014/3/30 4:52,2,2,2,3,3.9,1
2014/3/30 4:53,2,2,2,3,4.4,2
2014/3/30 4:54,2.1,2,2.1,3,4.7,3
2014/3/30 4:55,2.2,2,2.2,3,5.1,3
2014/3/30 4:56,2.3,2,2.3,2,4.5,3
2014/3/30 4:57,2.3,2,2.4,2,4.2,2
2014/3/30 4:58,2.2,2,2.3,2,1.3,16
2014/3/30 4:59,2.2,2,2.2,2,2,9
2014/3/30 5:00,2,2,2.1,2,1.4,9
2014/3/30 5:01,2.2,2,2.2,2,3.5,3
2014/3/30 5:02,2.3,2,2.3,2,4.3,3
2014/3/30 5:03,2.4,3,2.4,2,5.1,2
2014/3/30 5:04,2.5,3,2.5,3,6.2,3
2014/3/30 5:05,2.5,3,2.5,3,4.9,3
2014/3/30 5:06,2.4,2,2.5,3,5.4,1
2014/3/30 5:07,2.4,2,2.4,3,3.1,2
2014/3/30 5:08,2.4,2,2.4,3,2.1,4
2014/3/30 5:09,2.5,2,2.5,3,3.7,12
2014/3/30 5:10,2.9,2,2.9,2,5.4,12
2014/3/30 5:11,3,2,3,2,5.2,12
2014/3/30 5:12,3,1,3,2,3.9,15
2014/3/30 5:13,2.8,16,3,2,3.9,16
2014/3/30 5:14,2.6,15,2.8,2,3.7,3
2014/3/30 5:15,2.6,15,2.6,2,4.1,3
2014/3/30 5:16,2.7,16,2.7,2,5.2,3
2014/3/30 5:17,2.9,16,2.9,2,5.2,2
2014/3/30 5:18,3.1,16,3.1,16,4.9,3
2014/3/30 5:19,3.3,1,3.3,1,5.1,3
2014/3/30 5:20,3.2,2,3.3,1,4.4,3
2014/3/30 5:21,3.1,2,3.2,1,4.2,3
2014/3/30 5:22,3,2,3.1,1,3,2
2014/3/30 5:23,3,3,3,1,3.8,4
2014/3/30 5:24,3,3,3,1,4.1,1
2014/3/30 5:25,2.9,2,3,1,4.2,2
2014/3/30 5:26,2.7,2,2.9,1,2,14
2014/3/30 5:27,2.5,2,2.6,1,2.9,14
2014/3/30 5:28,2.3,1,2.5,1,3.6,15
2014/3/30 5:29,2.1,1,2.3,1,2.5,16
2014/3/30 5:30,1.8,16,2,2,1.9,16
2014/3/30 5:31,1.6,16,1.8,2,1,15
2014/3/30 5:32,1.5,16,1.6,2,0.5,11
2014/3/30 5:33,1.3,15,1.5,3,1.1,7
2014/3/30 5:34,1.1,15,1.3,3,1.4,6
2014/3/30 5:35,1,15,1,2,3,4
2014/3/30 5:36,1,1,1,2,1.3,5
2014/3/30 5:37,0.9,3,1,2,1.5,3
2014/3/30 5:38,0.8,4,0.9,1,2,4
2014/3/30 5:39,0.8,4,0.9,1,1.8,4
2014/3/30 5:40,0.8,5,0.8,16,3.2,3
2014/3/30 5:41,1,5,1,16,2.6,5
2014/3/30 5:42,1,4,1,16,1.3,5
2014/3/30 5:43,1.1,4,1.1,15,2.6,3
2014/3/30 5:44,1.2,4,1.2,4,2.6,4
2014/3/30 5:45,1.1,4,1.2,4,1.1,16
2014/3/30 5:46,1.2,3,1.2,4,2,5
2014/3/30 5:47,1.2,3,1.2,4,2,5
2014/3/30 5:48,1.2,3,1.2,4,1.9,2
2014/3/30 5:49,1.2,3,1.2,4,3.3,4
2014/3/30 5:50,1.3,3,1.3,3,3,4
2014/3/30 5:51,1.3,3,1.3,3,3.1,3
2014/3/30 5:52,1.4,3,1.4,3,2.7,1
2014/3/30 5:53,1.4,3,1.5,3,2.9,3
2014/3/30 5:54,1.4,2,1.4,3,2.2,2
2014/3/30 5:55,1.5,2,1.5,3,2.7,3
2014/3/30 5:56,1.6,3,1.6,2,2.2,3
2014/3/30 5:57,1.6,3,1.6,2,1.3,2
2014/3/30 5:58,1.6,3,1.6,2,1.9,2
2014/3/30 5:59,1.5,3,1.6,2,1.8,3
2014/3/30 6:00,1.5,3,1.5,2,1.8,3
2014/3/30 6:01,1.4,3,1.5,2,1.9,2
2014/3/30 6:02,1.4,3,1.4,2,1.5,3
2014/3/30 6:03,1.2,3,1.3,2,1,3
2014/3/30 6:04,1.2,3,1.2,2,1.1,2
2014/3/30 6:05,1.1,3,1.2,2,2.5,3
2014/3/30 6:06,1.2,3,1.2,2,2.9,3
2014/3/30 6:07,1.3,3,1.3,3,2.5,4
2014/3/30 6:08,1.2,3,1.3,3,0.9,7
2014/3/30 6:09,1.1,3,1.2,3,0.3,13
2014/3/30 6:10,1,3,1.1,3,0.1,8
2014/3/30 6:11,0.8,3,1,3,0.1,6
2014/3/30 6:12,0.7,3,0.8,3,0.6,3
2014/3/30 6:13,0.8,3,0.8,3,1.3,4
2014/3/30 6:14,0.8,3,0.8,3,1.1,3
2014/3/30 6:15,0.7,4,0.8,3,1.3,3
2014/3/30 6:16,0.6,4,0.7,3,1.8,3
2014/3/30 6:17,0.6,3,0.6,3,1.8,4
2014/3/30 6:18,0.6,4,0.6,3,1.5,4
2014/3/30 6:19,0.7,4,0.7,3,1,5
2014/3/30 6:20,0.8,3,0.8,4,1.5,3
2014/3/30 6:21,0.9,3,0.9,3,1.3,4
2014/3/30 6:22,0.9,3,0.9,3,1,16
2014/3/30 6:23,0.9,3,0.9,3,1.6,1
2014/3/30 6:24,1,3,1,3,2.7,16
2014/3/30 6:25,1,3,1,3,2.1,1
2014/3/30 6:26,1,3,1,3,1.5,2
2014/3/30 6:27,0.9,2,1,3,1.3,2
2014/3/30 6:28,0.9,2,0.9,3,0.9,1
2014/3/30 6:29,0.9,2,0.9,3,1.3,2
2014/3/30 6:30,0.9,1,0.9,3,2,2
2014/3/30 6:31,0.9,2,0.9,3,1.5,4
2014/3/30 6:32,0.9,2,0.9,3,1,3
2014/3/30 6:33,0.9,2,0.9,3,2.5,5
2014/3/30 6:34,1,3,1,3,3,4
2014/3/30 6:35,1,3,1,3,2.2,5
2014/3/30 6:36,1.1,3,1.1,3,2.7,3
2014/3/30 6:37,1.2,3,1.2,3,1.8,2
2014/3/30 6:38,1.2,3,1.2,3,1.1,1
2014/3/30 6:39,1.2,3,1.2,3,1.5,11
2014/3/30 6:40,1.2,3,1.2,3,1.5,11
2014/3/30 6:41,1.2,2,1.2,3,1.6,14
2014/3/30 6:42,1.2,2,1.2,3,1.6,16
2014/3/30 6:43,1.2,1,1.2,3,2.2,3
2014/3/30 6:44,1.1,1,1.2,3,2,1
2014/3/30 6:45,1.1,1,1.1,3,2.5,2
2014/3/30 6:46,1,1,1.1,3,2.4,3
2014/3/30 6:47,1,1,1,3,2.5,2
2014/3/30 6:48,1.1,1,1.1,3,1.1,2
2014/3/30 6:49,1.1,1,1.1,3,1.3,1
2014/3/30 6:50,1.1,2,1.1,3,1.6,3
2014/3/30 6:51,1.1,2,1.1,2,1.8,4
2014/3/30 6:52,1.1,2,1.1,2,1,3
2014/3/30 6:53,1,2,1.1,1,1.3,1
2014/3/30 6:54,1,2,1,1,1.4,16
2014/3/30 6:55,0.9,1,1,1,1.8,1
2014/3/30 6:56,0.9,1,0.9,1,1.8,1
2014/3/30 6:57,0.8,1,0.8,1,1,3
2014/3/30 6:58,0.8,1,0.8,1,1.3,4
2014/3/30 6:59,0.8,2,0.8,1,1.5,4
2014/3/30 7:00,0.8,2,0.8,2,1.4,5
2014/3/30 7:01,0.7,2,0.8,2,1.3,5
2014/3/30 7:02,0.7,2,0.7,2,0.3,6
2014/3/30 7:03,0.6,3,0.7,2,0.3,2
2014/3/30 7:04,0.6,3,0.6,2,0.8,1
2014/3/30 7:05,0.6,3,0.6,1,1.4,2
2014/3/30 7:06,0.5,3,0.6,1,0.8,1
2014/3/30 7:07,0.5,3,0.6,1,0.9,2
2014/3/30 7:08,0.5,2,0.5,1,1.4,2
2014/3/30 7:09,0.5,2,0.5,2,1.8,2
2014/3/30 7:10,0.5,2,0.5,2,2.1,4
2014/3/30 7:11,0.6,2,0.6,2,2,3
2014/3/30 7:12,0.7,2,0.7,2,2.2,3
2014/3/30 7:13,0.9,2,0.9,2,2.6,2
2014/3/30 7:14,1,2,1,2,2.2,1
2014/3/30 7:15,1,2,1,2,2.1,2
2014/3/30 7:16,1.1,2,1.1,2,1.9,3
2014/3/30 7:17,1.2,2,1.2,2,1.6,2
2014/3/30 7:18,1.2,2,1.2,2,1.3,2
2014/3/30 7:19,1.2,2,1.2,2,1.4,2
2014/3/30 7:20,1.1,2,1.2,2,1.4,2
2014/3/30 7:21,1.1,2,1.1,2,1.1,1
2014/3/30 7:22,1.1,2,1.1,2,2.1,2
2014/3/30 7:23,1.1,2,1.1,2,2,3
2014/3/30 7:24,1.1,2,1.1,2,1.4,2
2014/3/30 7:25,1,2,1.1,2,1.1,1
2014/3/30 7:26,0.9,2,1,2,1.1,1
2014/3/30 7:27,1,2,1,2,1.4,2
2014/3/30 7:28,0.9,2,1,2,1.1,1
2014/3/30 7:29,1,2,1,2,1.3,3
2014/3/30 7:30,0.9,2,1,2,1.1,1
2014/3/30 7:31,0.9,2,0.9,2,1.4,1
2014/3/30 7:32,0.8,2,0.9,2,0.9,2
2014/3/30 7:33,0.7,2,0.8,2,0.1,15
2014/3/30 7:34,0.6,2,0.7,2,0.4,5
2014/3/30 7:35,0.5,2,0.6,2,0.5,16
2014/3/30 7:36,0.5,2,0.5,2,1.3,16
2014/3/30 7:37,0.5,2,0.5,2,1.1,1
2014/3/30 7:38,0.5,2,0.5,2,1.1,1
2014/3/30 7:39,0.4,2,0.5,2,0.8,3
2014/3/30 7:40,0.4,2,0.4,2,0.8,15
2014/3/30 7:41,0.3,1,0.4,2,0.9,15
2014/3/30 7:42,0.5,1,0.5,2,2,13
2014/3/30 7:43,0.7,16,0.7,2,2.4,13
2014/3/30 7:44,0.9,16,0.9,16,2.7,14
2014/3/30 7:45,1.1,15,1.1,15,2.5,15
2014/3/30 7:46,1.1,15,1.1,15,1.8,14
2014/3/30 7:47,1.1,15,1.1,15,1.8,14
2014/3/30 7:48,1.2,15,1.2,15,2.1,16
2014/3/30 7:49,1.3,14,1.3,15,1.9,16
2014/3/30 7:50,1.3,14,1.4,14,1.3,7
2014/3/30 7:51,1.4,15,1.5,15,1.8,16
2014/3/30 7:52,1.5,15,1.5,15,2.5,16
2014/3/30 7:53,1.4,15,1.5,15,2.2,15
2014/3/30 7:54,1.4,15,1.4,15,2,15
2014/3/30 7:55,1.3,15,1.3,15,1.4,15
2014/3/30 7:56,1.2,16,1.3,15,0.8,15
2014/3/30 7:57,1.2,16,1.2,15,1.3,16
2014/3/30 7:58,1.2,16,1.2,15,1.1,16
2014/3/30 7:59,1.1,16,1.2,15,1.3,16
2014/3/30 8:00,1.2,16,1.2,15,1.8,15
2014/3/30 8:01,1.1,15,1.1,15,1.3,14
2014/3/30 8:02,1,15,1.1,15,1.6,14
2014/3/30 8:03,1,15,1,15,1.4,14
2014/3/30 8:04,0.9,15,1,15,1.4,13
2014/3/30 8:05,0.9,15,0.9,15,1.1,14
2014/3/30 8:06,0.8,15,0.9,16,0.5,13
2014/3/30 8:07,0.7,15,0.8,16,0.1,3
2014/3/30 8:08,0.7,14,0.7,16,0.6,7
2014/3/30 8:09,0.6,14,0.7,16,0.8,6
2014/3/30 8:10,0.6,14,0.6,16,1.6,16
2014/3/30 8:11,0.7,14,0.7,15,2.4,15
2014/3/30 8:12,0.8,15,0.8,15,2.7,14
2014/3/30 8:13,0.8,15,0.8,15,2.2,15
2014/3/30 8:14,0.8,15,0.8,15,1.8,15
2014/3/30 8:15,0.8,15,0.8,15,1.5,14
2014/3/30 8:16,0.8,15,0.8,15,0.8,11
2014/3/30 8:17,0.8,14,0.8,15,0.6,9
2014/3/30 8:18,0.9,14,0.9,14,2,10
2014/3/30 8:19,0.9,14,0.9,14,1.6,10
2014/3/30 8:20,1,13,1,14,2.1,9
2014/3/30 8:21,1,12,1,14,2.9,10
2014/3/30 8:22,0.9,12,1,14,2.1,9
2014/3/30 8:23,0.8,11,0.9,14,1.8,9
2014/3/30 8:24,0.7,10,0.8,14,0.3,10
2014/3/30 8:25,0.7,10,0.7,14,1.4,10
2014/3/30 8:26,0.8,10,0.8,14,1.1,11
2014/3/30 8:27,0.8,10,0.8,14,1,9
2014/3/30 8:28,0.8,10,0.8,14,0.6,10
2014/3/30 8:29,0.7,10,0.8,14,0.3,14
2014/3/30 8:30,0.6,10,0.7,13,0.6,13
2014/3/30 8:31,0.5,10,0.6,12,0.6,13
2014/3/30 8:32,0.5,11,0.5,11,0.9,11
2014/3/30 8:33,0.4,11,0.5,11,1,9
2014/3/30 8:34,0.4,11,0.4,10,1.1,9
2014/3/30 8:35,0.4,11,0.4,10,0.3,11
2014/3/30 8:36,0.4,11,0.4,10,2,10
2014/3/30 8:37,0.4,10,0.4,10,1.5,10
2014/3/30 8:38,0.4,11,0.4,10,1.1,12
2014/3/30 8:39,0.5,11,0.5,10,0.5,13
2014/3/30 8:40,0.5,11,0.5,10,0.5,12
2014/3/30 8:41,0.4,11,0.5,11,0.9,10
2014/3/30 8:42,0.4,11,0.5,11,0.9,8
2014/3/30 8:43,0.4,11,0.4,11,0.1,7
2014/3/30 8:44,0.4,11,0.4,11,0.6,9
2014/3/30 8:45,0.4,11,0.4,11,1.4,10
2014/3/30 8:46,0.5,11,0.5,11,1.3,10
2014/3/30 8:47,0.4,12,0.4,11,1,12
2014/3/30 8:48,0.4,11,0.4,11,1,12
2014/3/30 8:49,0.5,11,0.5,11,1.5,10
2014/3/30 8:50,0.6,10,0.6,11,1.5,9
2014/3/30 8:51,0.7,10,0.7,10,1.5,10
2014/3/30 8:52,0.8,10,0.8,10,2.1,11
2014/3/30 8:53,1,10,1,10,2.4,10
2014/3/30 8:54,1.2,10,1.2,10,3.1,8
2014/3/30 8:55,1.2,10,1.2,10,2.7,9
2014/3/30 8:56,1.2,10,1.2,10,1.5,10
2014/3/30 8:57,1.2,10,1.2,10,1.9,9
2014/3/30 8:58,1.2,10,1.2,10,1.1,10
2014/3/30 8:59,1.1,10,1.2,10,0.4,10
2014/3/30 9:00,1.1,10,1.1,10,2.6,10
2014/3/30 9:01,1.2,10,1.2,10,2,11
2014/3/30 9:02,1.1,10,1.2,10,2,10
2014/3/30 9:03,1.1,10,1.1,10,2.7,10
2014/3/30 9:04,1.2,10,1.2,10,3.7,9
2014/3/30 9:05,1.2,10,1.2,10,2.5,10
2014/3/30 9:06,1.4,10,1.4,10,3.3,10
2014/3/30 9:07,1.4,10,1.4,10,2.7,8
2014/3/30 9:08,1.5,10,1.5,10,2.5,10
2014/3/30 9:09,1.7,10,1.7,10,2.6,10
2014/3/30 9:10,1.6,10,1.7,10,1.5,12
2014/3/30 9:11,1.6,10,1.6,10,1.8,9
2014/3/30 9:12,1.6,10,1.6,10,1.8,11
2014/3/30 9:13,1.6,11,1.6,10,3,12
2014/3/30 9:14,1.5,11,1.6,10,3.6,12
2014/3/30 9:15,1.6,11,1.6,10,2.5,12
2014/3/30 9:16,1.4,11,1.5,10,1.9,10
2014/3/30 9:17,1.4,11,1.4,10,2.2,9
2014/3/30 9:18,1.3,11,1.4,10,2.4,9
2014/3/30 9:19,1.3,11,1.3,10,3.5,11
2014/3/30 9:20,1.3,11,1.3,10,3.1,10
2014/3/30 9:21,1.4,11,1.4,10,1.8,15
2014/3/30 9:22,1.4,11,1.4,11,2.7,10
2014/3/30 9:23,1.4,11,1.4,11,2.1,9
2014/3/30 9:24,1.4,11,1.4,11,5.5,10
2014/3/30 9:25,1.5,11,1.5,11,4.3,11
2014/3/30 9:26,1.6,11,1.6,11,3.5,9
2014/3/30 9:27,1.6,11,1.6,11,2.1,11
2014/3/30 9:28,1.7,11,1.7,11,2.7,11
2014/3/30 9:29,1.7,11,1.7,11,2.7,9
2014/3/30 9:30,1.7,11,1.7,11,3.6,9
2014/3/30 9:31,1.9,11,1.9,11,4.5,9
2014/3/30 9:32,2,11,2,11,3.9,9
2014/3/30 9:33,2.1,11,2.1,11,5.5,9
2014/3/30 9:34,2.3,11,2.3,11,6.9,10
2014/3/30 9:35,2.3,10,2.4,10,6.4,10
2014/3/30 9:36,2.4,10,2.4,10,5.7,9
2014/3/30 9:37,2.6,10,2.6,10,5.7,10
2014/3/30 9:38,2.9,10,2.9,10,5.2,11
2014/3/30 9:39,3,10,3,10,4.7,9
2014/3/30 9:40,3.1,10,3.1,10,4.5,10
2014/3/30 9:41,3.2,10,3.2,10,6.5,11
2014/3/30 9:42,3.4,10,3.4,10,6.1,10
2014/3/30 9:43,3.5,10,3.5,10,6,10
2014/3/30 9:44,3.3,10,3.5,10,4.9,9
2014/3/30 9:45,3.2,10,3.4,10,4.8,10
2014/3/30 9:46,3.1,10,3.2,10,4.9,10
2014/3/30 9:47,3,10,3.1,10,5.5,10
2014/3/30 9:48,3,10,3,10,5.7,9
2014/3/30 9:49,2.9,10,2.9,10,4.7,10
2014/3/30 9:50,3,10,3.1,10,5,10
2014/3/30 9:51,3,10,3.1,10,4.7,10
2014/3/30 9:52,3,10,3,10,6.1,10
2014/3/30 9:53,2.8,10,3,10,5.5,9
2014/3/30 9:54,3.1,10,3.1,10,7.2,10
2014/3/30 9:55,3.4,10,3.4,10,7.2,10
2014/3/30 9:56,3.5,10,3.5,10,7.4,9
2014/3/30 9:57,3.6,10,3.6,10,6.7,9
2014/3/30 9:58,3.6,10,3.6,10,6,10
2014/3/30 9:59,3.7,10,3.7,10,6.3,9
2014/3/30 10:00,3.8,10,3.8,10,7.2,9
2014/3/30 10:01,3.9,10,4,10,6.8,10
2014/3/30 10:02,4,10,4,10,6.7,10
2014/3/30 10:03,4.2,10,4.2,10,7.6,10
2014/3/30 10:04,4.1,10,4.2,10,6.4,10
2014/3/30 10:05,4,10,4.1,10,7.5,10
2014/3/30 10:06,4,10,4,10,5.6,11
2014/3/30 10:07,4,10,4,10,6.3,10
2014/3/30 10:08,4.1,10,4.1,10,7,10
2014/3/30 10:09,4.2,10,4.2,10,6.7,10
2014/3/30 10:10,4.1,10,4.2,10,6.1,9
2014/3/30 10:11,4,10,4.1,10,5.2,10
2014/3/30 10:12,3.9,10,4,10,7.1,10
2014/3/30 10:13,3.9,10,4,10,6.7,10
2014/3/30 10:14,3.9,10,4,10,6.5,10
2014/3/30 10:15,3.8,10,3.8,10,5.8,9
2014/3/30 10:16,3.9,10,3.9,10,6.8,9
2014/3/30 10:17,4.1,10,4.1,10,7.6,10
2014/3/30 10:18,4.1,10,4.1,10,8.2,8
2014/3/30 10:19,4.1,10,4.1,10,7.7,10
2014/3/30 10:20,4.2,10,4.2,10,8.4,9
2014/3/30 10:21,4.3,10,4.3,10,6.8,10
2014/3/30 10:22,4.4,10,4.4,10,7.6,10
2014/3/30 10:23,4.4,10,4.4,10,6.4,11
2014/3/30 10:24,4.4,10,4.5,10,6.3,10
2014/3/30 10:25,4.3,10,4.4,10,4.3,8
2014/3/30 10:26,4.2,10,4.3,10,6.9,9
2014/3/30 10:27,3.9,10,4.2,10,4.1,9
2014/3/30 10:28,3.7,10,3.9,10,5.4,9
2014/3/30 10:29,3.6,10,3.7,10,4.7,10
2014/3/30 10:30,3.4,10,3.5,10,5.8,9
2014/3/30 10:31,3.4,11,3.5,10,7.8,13
2014/3/30 10:32,3,11,3.3,10,2.6,15
2014/3/30 10:33,2.7,11,3,10,3.6,12
2014/3/30 10:34,2.6,11,2.7,10,7.8,12
2014/3/30 10:35,2.8,11,2.8,10,7.4,13
2014/3/30 10:36,2.9,12,2.9,10,8.5,12
2014/3/30 10:37,3.4,12,3.4,10,8.4,12
2014/3/30 10:38,3.4,12,3.4,10,5,12
2014/3/30 10:39,3.4,12,3.4,10,6.1,10
2014/3/30 10:40,3.5,12,3.5,10,6.1,9
2014/3/30 10:41,3.4,12,3.5,12,6.7,10
2014/3/30 10:42,3.9,11,3.9,11,9.7,10
2014/3/30 10:43,4.1,11,4.1,11,8.6,11
2014/3/30 10:44,4.6,11,4.6,11,10.2,11
2014/3/30 10:45,4.4,11,4.5,11,4.9,10
2014/3/30 10:46,4,10,4.4,11,3.6,4
2014/3/30 10:47,3.9,10,4,11,9.2,11
2014/3/30 10:48,4.1,10,4.1,11,7.8,11
2014/3/30 10:49,4,10,4.1,11,7.6,9
2014/3/30 10:50,3.8,10,4,11,4.2,10
2014/3/30 10:51,3.7,10,3.8,11,4.9,1
2014/3/30 10:52,3.3,11,3.7,11,5.1,12
2014/3/30 10:53,3.5,11,3.5,11,10.1,9
2014/3/30 10:54,3.1,11,3.5,11,6.9,9
2014/3/30 10:55,3.1,11,3.1,11,6.4,10
2014/3/30 10:56,3.4,11,3.4,10,11,10
2014/3/30 10:57,3.4,11,3.5,10,10.6,10
2014/3/30 10:58,3.5,11,3.5,10,9.5,10
2014/3/30 10:59,3.7,11,3.7,10,11,9
2014/3/30 11:00,4.2,11,4.2,11,13.3,9
2014/3/30 11:01,4.7,11,4.7,11,13.8,10
2014/3/30 11:02,4.9,11,4.9,11,7.8,10
2014/3/30 11:03,5,11,5.1,11,10.1,11
2014/3/30 11:04,5,11,5,11,6.4,10
2014/3/30 11:05,5.3,11,5.3,11,11.1,11
2014/3/30 11:06,5.4,11,5.4,11,9.7,10
2014/3/30 11:07,5.3,11,5.4,11,10.1,10
2014/3/30 11:08,4.9,11,5.2,11,5,9
2014/3/30 11:09,4.9,11,4.9,11,10.7,10
2014/3/30 11:10,4.8,11,4.9,11,10.7,12
2014/3/30 11:11,4.4,11,4.7,11,7.2,11
2014/3/30 11:12,4.6,11,4.6,11,9.2,13
2014/3/30 11:13,4.4,11,4.6,11,6.4,16
2014/3/30 11:14,4.2,11,4.4,11,4.8,12
2014/3/30 11:15,4.2,11,4.2,11,9.9,12
2014/3/30 11:16,4.2,12,4.3,11,8.3,13
2014/3/30 11:17,3.9,12,4.1,11,3.3,11
2014/3/30 11:18,3.9,12,4,11,3.6,1
2014/3/30 11:19,3.6,13,3.9,11,2.6,16
2014/3/30 11:20,3.1,13,3.5,11,5.1,13
2014/3/30 11:21,2.8,13,3.1,11,1.4,15
2014/3/30 11:22,2.2,13,2.8,11,0.8,4
2014/3/30 11:23,2.3,13,2.3,11,6.8,11
2014/3/30 11:24,2.4,13,2.4,11,7.1,11
2014/3/30 11:25,2,13,2.4,11,2.9,11
2014/3/30 11:26,1.8,12,2,12,4.3,7
2014/3/30 11:27,1.8,13,1.8,12,3.8,11
2014/3/30 11:28,1.9,12,1.9,12,3.7,14
2014/3/30 11:29,1.9,12,1.9,13,3.5,14
2014/3/30 11:30,1.8,12,1.9,13,2.7,14